This demonstration page uses our WeatherBlox Daily Observations layout. Learn more.

Left ArrowRight Arrow

Hourly Observations for October 15, 2020

Temp ( °F °C ) Dew Point ( °F °C ) Humidity (%) Winds ( mph kmh ) Pressure ( in mb ) Visibility ( mi km ) Precip ( " mm )
12:15 am 00:15 Clear 63 17 46 8 56 56 S 8 13 29.72 1006 10 16 N/A
12:35 am 00:35 Partly Cloudy 63 17 45 7 52 52 S 9 15 29.72 1006 10 16 N/A
12:55 am 00:55 Mostly Cloudy 64 18 45 7 49 49 S 10 17 29.71 1006 10 16 N/A
1:15 am 01:15 Cloudy 66 19 45 7 46 46 SSW 10 17 29.72 1006 10 16 N/A
1:35 am 01:35 Partly Cloudy 66 19 45 7 46 46 SSW 12 19 29.73 1007 10 16 N/A
1:55 am 01:55 Clear 66 19 45 7 46 46 SW 16 26 29.73 1007 10 16 N/A
2:15 am 02:15 Clear 68 20 45 7 43 43 SW 18 30 29.74 1007 10 16 N/A
2:35 am 02:35 Clear 66 19 45 7 46 46 SW 17 28 29.74 1007 10 16 N/A
2:55 am 02:55 Clear 66 19 45 7 46 46 SW 15 24 29.74 1007 10 16 N/A
3:15 am 03:15 Clear 66 19 45 7 46 46 SW 15 24 29.75 1007 10 16 N/A
3:35 am 03:35 Partly Cloudy 64 18 45 7 49 49 SW 10 17 29.75 1008 10 16 N/A
3:55 am 03:55 Partly Cloudy 64 18 45 7 49 49 SW 8 13 29.75 1008 10 16 N/A
4:15 am 04:15 Partly Cloudy 63 17 45 7 52 52 SSW 9 15 29.75 1007 10 16 N/A
4:35 am 04:35 Mostly Cloudy 63 17 46 8 56 56 SW 8 13 29.77 1008 10 16 N/A
4:55 am 04:55 Cloudy 63 17 46 8 56 56 SW 9 15 29.77 1008 10 16 N/A
5:15 am 05:15 Mostly Cloudy 63 17 46 8 56 56 SW 9 15 29.79 1009 10 16 N/A
5:35 am 05:35 Cloudy 63 17 46 8 56 56 SW 9 15 29.79 1009 10 16 N/A
5:55 am 05:55 Cloudy 63 17 46 8 56 56 WSW 9 15 29.81 1009 10 16 N/A
6:15 am 06:15 Cloudy 63 17 46 8 56 56 WSW 8 13 29.81 1009 10 16 N/A
6:35 am 06:35 Cloudy 61 16 46 8 59 59 WSW 7 11 29.82 1010 10 16 N/A
6:55 am 06:55 Cloudy 61 16 46 8 59 59 WSW 7 11 29.83 1010 10 16 N/A
7:15 am 07:15 Cloudy 61 16 46 8 59 59 WSW 7 11 29.83 1010 10 16 N/A
7:35 am 07:35 Cloudy 61 16 46 8 59 59 W 10 17 29.83 1010 10 16 N/A
7:55 am 07:55 Cloudy 61 16 45 7 55 55 WNW 15 24 29.84 1011 10 16 N/A
8:15 am 08:15 Cloudy 59 15 46 8 63 63 WNW 14 22 29.87 1012 10 16 N/A
8:35 am 08:35 Cloudy 57 14 46 8 67 67 W 13 20 29.90 1012 10 16 N/A
8:55 am 08:55 Cloudy 57 14 46 8 67 67 W 16 26 29.91 1013 10 16 N/A
11:35 am 11:35 undefined N/A N/A N/A S 8 13 N/A N/A N/A
11:55 am 11:55 Cloudy 50 10 50 10 100 100 SW 7 11 29.98 1015 10 16 N/A
12:15 pm 12:15 Cloudy 50 10 50 10 100 100 S 7 11 29.97 1015 7 11 N/A
12:35 pm 12:35 Cloudy 50 10 50 10 100 100 S 9 15 29.99 1016 10 16 N/A
12:55 pm 12:55 Cloudy 50 10 50 10 100 100 S 7 11 29.98 1015 5 8 N/A
1:15 pm 13:15 Cloudy 48 9 48 9 100 100 WNW 13 20 29.99 1016 5 8 N/A
1:35 pm 13:35 Cloudy 46 8 46 8 100 100 W 9 15 30.02 1016 7 11 N/A
1:55 pm 13:55 Cloudy 46 8 46 8 100 100 WNW 12 19 30.02 1016 10 16 N/A
2:15 pm 14:15 Cloudy 46 8 46 8 100 100 W 8 13 30.02 1016 10 16 N/A
2:35 pm 14:35 Cloudy 46 8 46 8 100 100 W 8 13 30.02 1016 10 16 N/A
2:55 pm 14:55 Cloudy 46 8 46 8 100 100 W 9 15 30.01 1016 10 16 N/A
3:15 pm 15:15 Cloudy 46 8 46 8 100 100 W 8 13 30.02 1016 7 11 N/A
3:35 pm 15:35 Cloudy 46 8 46 8 100 100 W 8 13 30.02 1016 10 16 N/A
3:55 pm 15:55 Cloudy 46 8 46 8 100 100 WSW 5 7 30.01 1016 10 16 N/A
4:15 pm 16:15 Cloudy 46 8 46 8 100 100 WSW 6 9 30.02 1016 10 16 N/A
4:35 pm 16:35 Mostly Cloudy 46 8 46 8 100 100 WSW 6 9 30.03 1017 10 16 N/A
4:55 pm 16:55 Partly Cloudy 46 8 46 8 100 100 WSW 7 11 30.03 1017 10 16 N/A
5:15 pm 17:15 Sunny 46 8 46 8 100 100 WSW 7 11 30.04 1017 10 16 N/A
5:35 pm 17:35 Sunny 46 8 46 8 100 100 WSW 5 7 30.04 1017 10 16 N/A
5:55 pm 17:55 Sunny 46 8 46 8 100 100 WSW 6 9 30.05 1018 10 16 N/A
6:15 pm 18:15 Sunny 46 8 46 8 100 100 SW 6 9 30.06 1018 10 16 N/A
6:35 pm 18:35 Sunny 46 8 46 8 100 100 SW 6 9 30.06 1018 10 16 N/A
6:55 pm 18:55 Sunny 46 8 46 8 100 100 WSW 5 7 30.06 1018 10 16 N/A
7:15 pm 19:15 Clear 46 8 46 8 100 100 SW 5 7 30.07 1018 10 16 N/A
7:35 pm 19:35 Clear 46 8 46 8 100 100 SW 5 7 30.08 1019 10 16 N/A
7:55 pm 19:55 Clear 46 8 46 8 100 100 SW 5 7 30.09 1019 10 16 N/A
8:15 pm 20:15 Clear 45 7 45 7 100 100 W 6 9 30.10 1019 10 16 N/A
8:35 pm 20:35 Clear 46 8 46 8 100 100 W 9 15 30.11 1020 10 16 N/A
8:55 pm 20:55 Clear 46 8 46 8 100 100 W 6 9 30.11 1020 10 16 N/A
9:15 pm 21:15 Clear 45 7 45 7 100 100 W 5 7 30.11 1020 10 16 N/A
9:35 pm 21:35 Clear 45 7 45 7 100 100 W 6 9 30.12 1020 10 16 N/A
9:55 pm 21:55 Clear 45 7 43 6 93 93 W 6 9 30.13 1020 10 16 N/A
10:15 pm 22:15 Clear 43 6 43 6 100 100 W 5 7 30.14 1021 10 16 N/A
10:35 pm 22:35 Clear 41 5 41 5 100 100 W 7 11 30.15 1021 10 16 N/A
10:55 pm 22:55 Clear 41 5 41 5 100 100 W 8 13 30.17 1022 10 16 N/A
11:15 pm 23:15 Clear 41 5 41 5 100 100 W 8 13 30.17 1022 10 16 N/A
11:35 pm 23:35 Clear 39 4 39 4 100 100 W 6 9 30.17 1022 10 16 N/A
11:55 pm 23:55 Clear 39 4 39 4 100 100 W 8 13 30.18 1022 10 16 N/A

Powered by AerisWeather